sat.trackr.live / text

‹ back to catalog

STARLINK-1063

NORAD 44768 · 2019-074BH

PAYLOAD ACTIVE UNKNOWN

§ Identity

Operator
Country
US
Launch date
2019-11-11
Launch site
AFETR
Launch vehicle
Mass (kg)
RCS (m²)

Purposes: comms

External: N2YO · Heavens-Above · Gunter

§ Orbital elements

Epoch: 2026-09-20T03:13:05.166048Z

Period
92.17 min
Inclination
53.1490°
Eccentricity
0.0001013
Mean motion
15.62299163 rev/d
Perigee alt
380.3 km
Apogee alt
381.7 km
Semi-major
6,759.2 km
B*
8.6272e-4
RAAN
11.1954°
Arg perigee
308.3545°
Mean anomaly
51.7379°
Rev number
37,843

§ Raw data

STARLINK-10631 44768U 19074BH  26263.13408757  .00077813  00000+0  86272-3 0  99972 44768  53.1490  11.1954 0001013 308.3545  51.7379 15.62299163378438

JSON: /api/v1/satellites/44768 · /tle

For live sub-satellite position, see the globe view (requires WebGL).

§ Visibility from observer

Set your observer location to see the next 7 days of passes ≥ 10°. The values pass through the URL so the page stays shareable.

No JS? Fill the form by hand. The geolocation button needs JavaScript.